Location: Maccacari
(45.1333°N, 11.1333°E)
Time: 06:48:52
(UTC+00:00)

Envisat - Visible Passes

Search period start: 26 November 2020 00:00
Search period end: 06 December 2020 00:00
Orbit: 764 x 766 km, 98.1° (Epoch: 25 November)

Date Brightness Start Highest point End Pass type
(mag) Time Alt. Az. Time Alt. Az. Time Alt. Az.
26 Nov 3.4 05:06:04 10° NNE 05:11:09 68° ESE 05:16:12 10° S visible
26 Nov 3.2 16:22:31 10° S 16:27:35 77° WSW 16:32:41 10° NNW visible
27 Nov 4.9 04:29:38 10° NNE 04:34:11 32° E 04:38:41 10° SSE visible
27 Nov 5.6 17:26:20 10° SW 17:30:09 21° W 17:34:01 10° NW visible
28 Nov 6.0 03:54:06 10° NE 03:57:01 15° E 03:59:53 10° ESE visible
28 Nov 2.9 05:31:29 10° N 05:36:33 72° WNW 05:41:36 10° SSW visible
28 Nov 4.3 16:48:14 10° S 16:53:05 45° W 16:57:57 10° NNW visible
29 Nov 3.8 04:54:44 10° NNE 04:59:44 54° E 05:04:42 10° S visible
29 Nov 3.0 16:11:07 10° SSE 16:16:12 86° ENE 16:21:19 10° NNW visible
29 Nov 6.2 17:53:52 10° WSW 17:55:53 12° W 17:57:56 10° WNW visible
30 Nov 5.2 04:18:30 10° NE 04:22:43 26° E 04:26:53 10° SSE visible
30 Nov 3.4 05:57:06 10° N 06:01:53 42° WNW 06:06:38 10° SW visible
30 Nov 5.3 17:14:25 10° SSW 17:18:40 26° W 17:22:56 10° NW visible
01 Dec 6.2 03:43:39 10° ENE 03:45:28 12° E 03:47:17 10° ESE visible
01 Dec 3.0 05:20:04 10° NNE 05:25:12 89° WNW 05:30:17 10° SSW visible
01 Dec 3.8 16:36:40 10° S 16:41:39 56° W 16:46:40 10° NNW visible
02 Dec 4.3 04:43:27 10° NNE 04:48:19 43° E 04:53:07 10° S visible
02 Dec 3.0 15:59:47 10° SSE 16:04:49 69° ENE 16:09:54 10° N visible
02 Dec 6.0 17:41:21 10° SW 17:44:21 16° W 17:47:23 10° NW visible
03 Dec 5.6 04:07:26 10° NE 04:11:13 21° E 04:14:58 10° SE visible
03 Dec 3.1 05:45:36 10° N 05:50:33 53° WNW 05:55:28 10° SSW visible
03 Dec 4.9 17:02:38 10° SSW 17:07:11 33° W 17:11:46 10° NNW visible
04 Dec 3.2 05:08:42 10° NNE 05:13:48 74° ESE 05:18:52 10° S visible
04 Dec 3.4 16:25:11 10° S 16:30:14 71° WSW 16:35:20 10° NNW visible
05 Dec 4.7 04:32:13 10° NNE 04:36:51 34° E 04:41:27 10° SSE visible
05 Dec 5.7 17:29:11 10° SW 17:32:50 20° W 17:36:30 10° NW visible
